Regional Weather Roundup
Issued by NWS Northern Indiana

Home | Current Version | Previous Version | Graphics & Text | Print | Product List | Glossary On
Versions: 1 2 3 4 5 6 7 8 9 10 11 12 13 14 15 16 17 18 19 20 21 22 23 24 25 26 27 28 29 30 31 32 33 34 35 36 37 38 39 40 41 42 43 44 45 46 47 48 49 50
000
ASUS43 KIWX 012300
RWRIWX

KIWX WEATHER ROUNDUP
NATIONAL WEATHER SERVICE NORTHERN INDIANA
700 PM EDT WED OCT 01 2014

NOTE: "FAIR" INDICATES FEW OR NO CLOUDS BELOW 12,000 FEET WITH NO
SIGNIFICANT WEATHER AND/OR OBSTRUCTIONS TO VISIBILITY.

* THESE STATIONS ARE NOT UNDER NWS QUALITY CONTROL. THEY ALSO MAY NOT
  REPORT WEATHER SUCH AS PRECIPITATION OR FOG.

INZ001>027-020000-
NORTHERN INDIANA

CITY           SKY/WX    TMP DP  RH WIND       PRES   REMARKS
GARY*          MOCLDY    68  52  56 SE8       29.91S
KNOX*          PTCLDY    67  49  53 SE5       29.93F
SOUTH BEND     NOT AVBL
ELKHART*       CLEAR     64  48  55 SE7       29.97S
WARSAW*        CLEAR     63  50  63 SE6       29.97S
ANGOLA*        CLEAR     63  48  59 SE7       29.99S
FORT WAYNE     PTCLDY    63  50  62 E6        29.99F
PERU/GRISSOM   CLEAR     67  53  61 E6        29.95S

$$
INZ028>050-020000-
CENTRAL INDIANA

CITY           SKY/WX    TMP DP  RH WIND       PRES   REMARKS
LAFAYETTE      PTCLDY    69  58  67 E7        29.92R
KOKOMO*        CLEAR     66  50  55 SE8       29.96S
MUNCIE*        PTCLDY    67  50  54 SE6       29.97F
INDIANAPOLIS   PTCLDY    73  57  57 SE7       29.93S

$$
MIZ043>046-050>051-056>058-064>065-071>073-077>080-020000-
SOUTHWEST LOWER MICHIGAN

CITY           SKY/WX    TMP DP  RH WIND       PRES   REMARKS
BATTLE CREEK   CLEAR     64  49  57 SE5       29.99F
BENTON HARBOR  PTCLDY    64  52  64 E8        29.94S
COLDWATER*     CLEAR     63  50  61 SE5       29.99S
HILLSDALE*     CLEAR     62  48  60 CALM      30.01S
HOLLAND        CLEAR     62  52  69 SE6       29.97S
GRAND RAPIDS   PTCLDY    61  52  72 SE5       29.98S
KALAMAZOO      CLEAR     64  49  57 SE5       29.99S
STURGIS*       CLEAR     63  48  59 SE6       29.98R
THREE RIVERS*  FAIR      64  51  62 SE3       29.98R

$$
OHZ001>008-015>018-024>025-020000-
NORTHWEST OHIO

CITY           SKY/WX    TMP DP  RH WIND       PRES   REMARKS
DEFIANCE       CLEAR     66  48  52 SE3       30.00S
FINDLAY        CLEAR     66  49  54 S5        30.00R
TOLEDO EXPRESS CLEAR     63  54  72 E5        30.01R
TOLEDO METCALF CLEAR     64  54  69 E6        30.02S
LIMA           CLEAR     65  51  60 NE3       30.00R

$$
AND FOR LAKE MICHIGAN COASTAL AND OPEN LAKE BUOY OBSERVATIONS

STATION/POSITION TEMP    WIND        PRES    VSBY  WAVE
                 AIR SEA DIR/SP/G                  HT/PER
                 (F)     (DEG/KT/KT) (MB)    (MI)  (FT/S)
CALUMET HARBOR    69     120/  8/ 10 1011.2F
MICHIGAN CITY     67     120/ 10/ 14   N/A
SAINT JOSEPH      68      CALM  /  6 1014.6F
SOUTH LAKE BUOY   60 61  110/ 12/ 14 1013.9S         2/ 3

$$
&&



USA.gov is the U.S. government's official web portal to all federal, state and local government web resources and services.